Regional Weather Roundup
Issued by NWS

Home | Current Version | Previous Version | Text Only | Print | Product List | Glossary Off
Versions: 1 2 3 4 5 6 7 8 9 10 11 12 13 14 15 16 17 18 19 20 21 22 23 24 25 26 27 28 29 30 31 32 33 34 35 36 37 38 39 40 41 42 43 44 45 46 47 48 49 50

000
ASUS43 KDTX 282310
RWRMI
MICHIGAN HOURLY REGIONAL WEATHER ROUNDUP
NATIONAL WEATHER SERVICE DETROIT/PONTIAC MI
600 PM EST WED JAN 28 2015

NOTE: "FAIR" INDICATES FEW OR NO CLOUDS BELOW 12,000 FEET WITH NO
SIGNIFICANT WEATHER AND/OR OBSTRUCTION TO VISIBILITY.

MIZ047>049-052>055-059>063-066>070-074>076-081>083-290000-
SOUTHEAST LOWER MICHIGAN

CITY           SKY/WX    TMP DP  RH WIND       PRES   REMARKS
ADRIAN         CLOUDY    23  14  68 S8        30.24F
ALMA           CLOUDY    28  15  56 SE5       30.18F
ANN ARBOR      MOCLDY    26  14  60 S3        30.24R
BAD AXE        PTCLDY    25  10  52 S6        30.22R
DETROIT CITY   PTCLDY    25  13  60 S8        30.26F
DETROIT        MOCLDY    24  15  68 SE9       30.27R
FLINT          MOCLDY    30   6  36 S9        30.22R
GROSSE ILE     PTCLDY    23  18  80 S7        30.26R
HILLSDALE      CLOUDY    23  11  58 CALM      30.18F
HOWELL         CLOUDY    26   9  50 S9        30.20F

CITY           SKY/WX    TMP DP  RH WIND       PRES   REMARKS
JACKSON        CLOUDY    25   6  44 S9        30.19F
LAMBERTVILLE   MOCLDY    27  14  59 CALM      30.27R
LANSING        CLOUDY    28   9  44 S12       30.19S
LAPEER         NOT AVBL
MASON          CLOUDY    26   8  46 S12       30.19F
MONROE         MOCLDY    25  16  68 S7        30.26R
MT. CLEMENS    CLOUDY    22  15  75 S9        30.24S
PONTIAC        CLOUDY    26  10  50 S9        30.21R
PORT HOPE        N/A     26   5  40 S6        30.22R
PORT HURON     PTCLDY    23  14  68 S7        30.26S
TRI CITIES     MOCLDY    29  12  49 S6        30.21S
YPSILANTI      MOCLDY    28  16  60 S8        30.25R
$$
MIZ043>046-050>051-056>058-064>065-071>073-077>080-290000-
SOUTHWEST LOWER MICHIGAN

CITY           SKY/WX    TMP DP  RH WIND       PRES   REMARKS
BATTLE CREEK   MOCLDY    28   5  37 S14       30.17F
BENTON HARBOR  PTCLDY    28  10  46 SE14G22   30.11F
BIG RAPIDS     CLOUDY    28  11  48 SE12      30.12F
COLDWATER      MOCLDY    25   9  50 SE9       30.18F
HOLLAND        MOCLDY    31  11  43 SE13      30.13F
GRAND RAPIDS   CLOUDY    28  11  48 S7        30.14F
KALAMAZOO      MOCLDY    27   7  42 SE7       30.16F
MARSHALL       CLOUDY    26   3  37 S6        30.18F
MUSKEGON       CLOUDY    30   9  41 SE14      30.12F
$$
MIZ016>042-290000-
NORTHERN LOWER MICHIGAN

CITY           SKY/WX    TMP DP  RH WIND       PRES   REMARKS
ALPENA         MOCLDY    27  10  49 S9        30.16F
BEAVER ISLAND  CLOUDY    28  19  70 CALM      30.09F
BELLAIRE       MOCLDY    31  13  47 SE8       30.12F
CADILLAC       CLOUDY    26  11  52 SE7       30.08F
CHARLEVOIX     CLOUDY    29  13  51 SE3       30.13F
FRANKFORT      CLOUDY    30  14  51 S6        30.08F
GAYLORD        CLOUDY    27   9  46 S9        30.09F
GRAYLING       MOCLDY    28   9  44 SE7       30.12F
HARBOR SPRINGS CLOUDY    28   5  38 CALM      30.11F
MANISTEE       CLOUDY    30   7  37 SE9       30.09F
OSCODA         PTCLDY    25  14  62 S6        30.20S
PELLSTON       CLOUDY    27   7  42 SE3       30.12F
TRAVERSE CITY  CLOUDY    31  15  52 SE7       30.09F
$$
MIZ007>008-015-290000-
EASTERN UPPER MICHIGAN

CITY           SKY/WX    TMP DP  RH WIND       PRES   REMARKS
KINROSS        CLOUDY    25  12  58 SE12      30.12F
MACKINAC ISLAN MOCLDY    26  12  54 E6        30.11F
NEWBERRY       LGT SNOW  22  20  91 SE10      30.07S
S. S. MARIE    CLOUDY    22   9  57 E7        30.13F
$$
MIZ004>006-011>014-085-290000-
CENTRAL UPPER MICHIGAN

CITY           SKY/WX    TMP DP  RH WIND       PRES   REMARKS
MANISTIQUE     CLOUDY    30  27  88 S12G20    30.05F
ESCANABA       CLOUDY    30  25  80 S10       30.02F
MENOMINEE      MOCLDY    30  25  80 S8        30.00F
SAWYER-GWINN   CLOUDY    28  21  74 S17G26    29.94F
$$
MIZ001>003-009>011-084-290000-
WESTERN UPPER MICHIGAN

CITY           SKY/WX    TMP DP  RH WIND       PRES   REMARKS
IRON MOUNTAIN  CLOUDY    28  20  71 SE13      29.93F
HOUGHTON       CLOUDY    29  22  75 E8        29.86F
COPPER HARBOR    N/A     31  22  69 SW13G31   29.87F
IRONWOOD       CLOUDY    30  21  69 S5        29.78F
$$

ABBREVIATIONS USED IN REMARKS
   TC - TEMPERATURE IN CELSIUS
  WCI - WIND CHILL INDEX
   HX - HEAT INDEX
  VSB - VISIBILITY




USA.gov is the U.S. government's official web portal to all federal, state and local government web resources and services.